Location: ??
(34.6782°N, 135.5773°E)
Time: 22:33:23
(UTC+00:00)

Daily predictions for brighter satellites

Satellite Brightness Start Highest point End
(mag) Time Altitude Azimuth Time Altitude Azimuth Time Altitude Azimuth
IDEFIX/ARIANE 42P 4.1 17:55:47 10° NNE 17:58:24 30° NNE 17:58:24 30° NNE
Cosmos 2360 Rocket 3.5 18:04:05 32° ESE 18:04:54 33° ESE 18:09:56 10° NE
Cosmos 1980 Rocket 4.4 18:18:26 14° NNW 18:18:26 14° NNW 18:19:31 10° N
SL-4 R/B 4.2 18:23:56 23° N 18:23:56 23° N 18:26:14 10° NNE
Cosmos 2263 Rocket 3.9 18:27:32 22° SSE 18:27:32 22° SSE 18:29:22 10° SSE
Cosmos 2322 Rocket 2.4 18:25:05 62° N 18:25:05 62° N 18:29:49 10° NNE
Cosmos 1727 Rocket 4.0 18:25:25 57° SSE 18:26:47 79° E 18:33:07 10° N
H-2A R/B 3.4 18:24:46 10° SE 18:28:50 39° ENE 18:33:00 10° N
CZ-2C R/B 3.5 18:26:30 10° NNE 18:31:28 45° E 18:34:22 23° SSE
Meteor 1-11 Rocket 4.3 18:26:53 10° N 18:32:30 57° E 18:37:58 10° SSE
Meteor 1-27 Rocket 3.9 18:32:36 47° SSE 18:34:23 75° E 18:40:17 10° NNE
SL-16 R/B 2.8 18:37:10 43° NNW 18:37:10 43° NNW 18:41:28 10° N
Cosmos 1898 Rocket 3.7 18:34:03 10° NNW 18:39:19 71° ENE 18:44:36 10° SSE
USA 267 3.9 18:33:37 10° NNE 18:39:32 38° NW 18:40:14 37° NW
Cosmos 2237 4.1 18:43:23 60° SSW 18:44:30 87° ESE 18:50:14 10° NNE
Cosmos 2219 Rocket 4.0 18:48:18 10° SSE 18:53:07 30° ESE 18:57:58 10° NE
IRIDIUM 104 4.2 18:47:57 10° N 18:53:08 68° W 18:53:33 65° WSW
Cosmos 841 Rocket 3.4 18:57:49 59° WSW 18:58:37 69° WNW 19:03:52 10° NNE
Cosmos 1937 Rocket 3.5 18:54:13 10° NNW 18:59:22 78° ENE 19:04:30 10° SSE
Cosmos 2208 Rocket 3.9 18:59:09 42° SSW 19:00:57 84° WNW 19:06:11 10° NNE
ATLAS 2AS CENTAUR R/B 3.7 18:53:59 10° NNW 19:01:02 47° NE 19:07:30 10° SE
IRIDIUM 114 4.3 18:57:11 10° NNW 19:02:15 54° W 19:02:39 53° WSW
Cosmos 1814 Rocket 3.8 19:02:13 41° SSW 19:04:05 80° WNW 19:09:22 10° NNE
Hubble Space Telescope 3.1 19:07:44 12° S 19:08:46 13° SSE 19:10:42 10° SE
Intercosmos 25 4.2 19:05:17 10° S 19:09:30 47° E 19:12:43 10° NNE
USA 32 3.9 19:05:17 10° N 19:10:30 70° W 19:15:43 10° S
USA 234 4.1 19:04:38 10° ESE 19:10:52 50° NE 19:17:08 10° NNW
MSX 4.4 19:07:43 10° N 19:12:51 34° WNW 19:13:19 34° W
COSMOS 2428 4.0 19:08:54 10° S 19:14:09 40° ESE 19:19:27 10° NE
deb Chang Zheng 4 4.1 19:10:24 10° NNE 19:14:36 56° ESE 19:18:46 10° S
Cosmos 1437 Rocket 3.0 19:12:57 13° S 19:16:14 67° E 19:20:02 10° NNE
Cosmos 2173 Rocket 4.0 19:10:03 10° N 19:16:27 87° E 19:22:49 10° S
Meteor 1-31 Rocket 4.4 19:13:50 10° NNE 19:17:23 34° E 19:20:55 10° SSE
Cosmos 540 Rocket 3.9 19:19:32 36° W 19:20:40 41° WNW 19:25:34 10° N
Gbstr 26 Del rocket 4.3 19:13:07 10° NW 19:20:58 74° SW 19:27:51 10° SE
BREEZE-M DEB (TANK) 4.0 19:19:16 25° WNW 19:22:15 35° NNW 19:25:33 10° NE
Meteor 2-20 4.4 19:16:39 10° S 19:22:47 84° W 19:28:54 10° N
Cosmos 2333 Rocket 2.7 19:17:29 10° S 19:23:09 63° ESE 19:28:51 10° NNE
X-37B 0.6 19:22:56 53° NW 19:23:34 76° NNE 19:26:44 10° ESE
SJ-6F 4.3 19:22:04 10° N 19:26:10 86° WNW 19:30:13 10° SSW
Cosmos 2322 3.6 19:22:41 10° SSW 19:28:21 88° WNW 19:34:02 10° NNE
Cosmos 1536 3.1 19:25:31 10° NNW 19:29:23 43° W 19:33:13 10° SSW
Cosmos 44 Rocket 4.4 19:31:04 23° WNW 19:31:46 24° NW 19:35:41 10° N
PAYLOAD A 4.5 19:30:37 10° N 19:34:47 33° WNW 19:36:35 25° WSW
ADEOS 3.5 19:30:12 10° N 19:35:26 81° WNW 19:40:38 10° SSW
CZ-4B R/B 4.3 19:36:38 10° NNE 19:41:05 77° ESE 19:45:33 10° S
OAO 3 Rocket 4.1 19:41:07 16° SW 19:44:43 44° SSE 19:49:25 10° E
ERS-2 2.5 19:41:54 10° S 19:45:20 39° W 19:48:48 10° NNW
Cosmos 1733 Rocket 3.4 19:41:38 10° NNW 19:45:41 41° W 19:49:44 10° SSW
Cosmos 2333 4.3 19:40:50 10° SSW 19:46:32 60° WNW 19:52:15 10° NNE
Cosmos 2016 Rocket 3.9 19:41:59 10° N 19:48:04 79° W 19:54:10 10° S
Cosmos 2360 Rocket 3.1 19:45:54 19° WSW 19:48:51 29° WNW 19:53:43 10° N
Cosmos 2242 Rocket 3.5 19:44:35 10° SSW 19:48:57 72° W 19:53:22 10° N
CZ-4B R/B 1.2 19:48:03 10° S 19:51:09 63° W 19:54:22 10° NNW
Meteor 1-19 Rocket 4.2 19:46:32 10° S 19:51:59 88° W 19:57:36 10° N
Meteor 1-18 Rocket 4.1 19:46:37 10° S 19:52:09 80° W 19:57:44 10° N
Cosmos 2061 Rocket 4.0 19:46:53 10° N 19:53:18 73° W 19:59:40 10° S
FENGYUN 3A 3.6 19:48:05 10° N 19:53:28 71° WNW 19:58:51 10° SSW
Delta 2 Rocket 4.3 19:51:12 11° SW 19:53:52 28° SSE 19:56:48 10° E
FALCON 9 DEB 4.4 19:52:37 10° SSW 19:55:31 35° SE 19:58:25 10° ENE
Cosmos 1743 2.8 19:54:47 10° NNW 19:58:28 49° W 20:02:09 10° SSW
Cosmos 1544 2.9 19:57:28 10° N 20:01:01 73° W 20:04:34 10° S
H-2A R/B 3.6 20:02:21 10° SW 20:04:55 15° W 20:07:31 10° WNW
Meteor PRIRODA 4.0 20:01:41 10° NNE 20:05:18 68° E 20:08:55 10° S
ALOS 2.5 20:01:39 10° N 20:06:08 48° WNW 20:10:36 10° SSW
Cosmos 2322 Rocket 4.1 20:07:56 10° WNW 20:09:01 10° NW 20:10:07 10° NW
CZ-2C R/B 3.9 20:05:41 10° NNW 20:09:17 19° WNW 20:12:53 10° WSW
Cosmos 1864 Rocket 4.5 20:03:19 10° NNW 20:09:26 62° W 20:15:28 10° S
Cosmos 1725 Rocket 4.0 20:04:23 10° NNW 20:10:28 62° W 20:16:32 10° S
Cosmos 372 Rocket 4.2 20:06:37 10° NNW 20:11:28 44° WSW 20:16:17 10° S
PSLV R/B 4.3 20:07:34 10° SSE 20:11:35 70° ENE 20:15:39 10° N
Cosmos 1844 Rocket 2.8 20:06:23 10° NNW 20:11:54 56° WSW 20:17:24 10° S
Cosmos 1242 Rocket 3.6 20:11:36 10° S 20:15:10 51° E 20:18:44 10° NNE
Cosmos 2278 Rocket 4.5 20:11:01 10° N 20:15:48 27° ENE 20:20:33 10° ESE
Cosmos 1844 3.7 20:14:04 10° NNW 20:19:32 60° WSW 20:24:59 10° S
SAR-Lupe-4 4.2 20:16:24 10° SSW 20:19:40 33° W 20:22:57 10° NNW
BREEZE M DEB (TANK) 3.6 20:14:13 10° WNW 20:20:20 29° WSW 20:23:08 10° S
Okean 3 3.8 20:19:38 10° S 20:23:55 74° E 20:28:12 10° N
Meteor 2-9 Rocket 4.1 20:19:58 10° NNW 20:25:21 68° W 20:30:37 10° S
ADEOS Rocket 3.9 20:19:35 10° SSW 20:25:29 31° W 20:30:55 10° NW
NOSS 3-4 (A) 4.4 20:21:25 10° NW 20:28:13 41° WSW 20:35:35 10° S
NOSS 3-4 (C) 4.4 20:21:31 10° NW 20:28:20 42° WSW 20:35:42 10° S
